Location: São Paulo
(23.5507°S, 46.6334°W)
Time: 03:39:39
(UTC-03:00)

Hubble Space Telescope - Visible Passes

Search period start: 20 January 2026 00:00
Search period end: 30 January 2026 00:00
Orbit: 479 x 481 km, 28.5° (Epoch: 19 January)

Date Brightness Start Highest point End Pass type
(mag) Time Alt. Az. Time Alt. Az. Time Alt. Az.
24 Jan 1.5 05:08:25 10° NW 05:11:59 39° NNE 05:15:34 10° E visible
25 Jan 1.4 04:40:01 20° NW 04:42:10 40° NNE 04:45:45 10° E visible
26 Jan 1.2 04:11:51 38° N 04:12:20 40° NNE 04:15:56 10° E visible
27 Jan 2.0 03:43:40 31° ENE 03:43:40 31° ENE 03:46:06 10° E visible
28 Jan 3.3 03:15:26 15° E 03:15:26 15° E 03:16:14 10° E visible
28 Jan 0.9 04:49:33 16° W 04:52:26 58° SSW 04:56:13 10° ESE visible
29 Jan 0.9 04:21:18 36° WSW 04:22:33 58° SSW 04:26:20 10° ESE visible
